| time (UTC) | temp C | wind direction | speed KPH | gust KPH | rain 1hr cm | rain 24hr cm | rain mn cm | humidity % | barometer mb |
| 20260506061459 | 16 | 257 | 1.6 | 9.7 | 0.00 | 0.00 | 0.00 | 55 | 1009.3 |
| 20260506044504 | 12 | 166 | 0.0 | 11.3 | 0.00 | 0.00 | 0.00 | 73 | 1009.9 |
| 20260506043004 | 12 | 164 | 0.0 | 0.0 | 0.00 | 0.00 | 0.00 | 71 | 1010.0 |
| 20260506041502 | 13 | 164 | 0.0 | 8.0 | 0.00 | 0.00 | 0.00 | 73 | 1010.0 |
| 20260506040006 | 13 | 164 | 0.0 | 0.0 | 0.00 | 0.00 | 0.00 | 72 | 1010.1 |
| 20260506034502 | 13 | 164 | 0.0 | 0.0 | 0.00 | 0.00 | 0.00 | 71 | 1010.2 |
| 20260506031504 | 16 | 164 | 0.0 | 0.0 | 0.00 | 0.00 | 0.00 | 62 | 1009.9 |
| 20260506030005 | 16 | 164 | 0.0 | 3.2 | 0.00 | 0.00 | 0.00 | 55 | 1009.8 |
| 20260506024502 | 18 | 164 | 0.0 | 8.0 | 0.00 | 0.00 | 0.00 | 51 | 1009.8 |
| 20260506023003 | 18 | 181 | 0.0 | 4.8 | 0.00 | 0.00 | 0.00 | 49 | 1010.0 |
| 20260506021502 | 19 | 181 | 0.0 | 3.2 | 0.00 | 0.00 | 0.00 | 47 | 1010.0 |
| 20260506020004 | 20 | 181 | 1.6 | 6.4 | 0.00 | 0.00 | 0.00 | 44 | 1010.0 |
| 20260506014502 | 20 | 140 | 0.0 | 6.4 | 0.00 | 0.00 | 0.00 | 44 | 1009.9 |
| 20260506011502 | 21 | 138 | 1.6 | 11.3 | 0.00 | 0.00 | 0.00 | 40 | 1009.6 |
| 20260506004501 | 21 | 87 | 1.6 | 9.7 | 0.00 | 0.00 | 0.00 | 38 | 1009.2 |
| 20260506003002 | 22 | 154 | 1.6 | 14.5 | 0.00 | 0.00 | 0.00 | 38 | 1008.9 |
| 20260506001504 | 22 | 160 | 6.4 | 16.1 | 0.00 | 0.00 | 0.00 | 36 | 1008.8 |
| 20260506000004 | 22 | 173 | 8.0 | 25.7 | 0.00 | 0.00 | 0.00 | 35 | 1008.6 |
| 20260505234502 | 22 | 159 | 4.8 | 19.3 | 0.00 | 0.00 | 0.00 | 35 | 1008.7 |
| 20260505232959 | 22 | 148 | 4.8 | 14.5 | 0.00 | 0.00 | 0.00 | 34 | 1008.6 |
| 20260505231502 | 22 | 175 | 4.8 | 12.9 | 0.00 | 0.00 | 0.00 | 34 | 1008.6 |
| 20260505230004 | 22 | 165 | 6.4 | 17.7 | 0.00 | 0.00 | 0.00 | 35 | 1008.5 |
| 20260505223001 | 23 | 163 | 9.7 | 35.4 | 0.00 | 0.00 | 0.00 | 35 | 1008.4 |
| 20260505221502 | 23 | 135 | 8.0 | 27.4 | 0.00 | 0.00 | 0.00 | 35 | 1008.5 |
| 20260505214505 | 23 | 155 | 11.3 | 24.1 | 0.00 | 0.00 | 0.00 | 35 | 1008.2 |
| 20260505213006 | 23 | 103 | 11.3 | 24.1 | 0.00 | 0.00 | 0.00 | 35 | 1008.3 |
| 20260505211501 | 23 | 219 | 9.7 | 30.6 | 0.00 | 0.00 | 0.00 | 34 | 1008.2 |
| 20260505210005 | 23 | 170 | 9.7 | 27.4 | 0.00 | 0.00 | 0.00 | 34 | 1008.0 |
| 20260505203001 | 24 | 153 | 14.5 | 33.8 | 0.00 | 0.00 | 0.00 | 32 | 1007.9 |
| 20260505201459 | 24 | 169 | 14.5 | 40.2 | 0.00 | 0.00 | 0.00 | 33 | 1007.9 |
| 20260505200005 | 25 | 166 | 11.3 | 25.7 | 0.00 | 0.00 | 0.00 | 32 | 1007.8 |
| 20260505194501 | 25 | 167 | 12.9 | 29.0 | 0.00 | 0.00 | 0.00 | 32 | 1007.8 |
| 20260505193007 | 25 | 175 | 9.7 | 25.7 | 0.00 | 0.00 | 0.00 | 34 | 1008.0 |
| 20260505191502 | 24 | 174 | 9.7 | 29.0 | 0.00 | 0.00 | 0.00 | 33 | 1008.1 |
| 20260505190005 | 25 | 150 | 11.3 | 32.2 | 0.00 | 0.00 | 0.00 | 29 | 1008.4 |
| 20260505184500 | 25 | 193 | 11.3 | 37.0 | 0.00 | 0.00 | 0.00 | 32 | 1008.5 |
| 20260505180008 | 24 | 162 | 20.9 | 43.5 | 0.00 | 0.00 | 0.00 | 36 | 1008.9 |
| 20260505171500 | 23 | 127 | 11.3 | 32.2 | 0.00 | 0.00 | 0.00 | 36 | 1008.9 |
| 20260505170006 | 23 | 155 | 12.9 | 27.4 | 0.00 | 0.00 | 0.00 | 36 | 1009.1 |
| 20260505164500 | 23 | 146 | 9.7 | 29.0 | 0.00 | 0.00 | 0.00 | 39 | 1009.5 |
| 20260505161501 | 23 | 153 | 9.7 | 27.4 | 0.00 | 0.00 | 0.00 | 42 | 1009.8 |
| 20260505151501 | 21 | 236 | 11.3 | 30.6 | 0.00 | 0.00 | 0.00 | 45 | 1010.3 |
| 20260505124502 | 17 | 128 | 0.0 | 1.6 | 0.00 | 0.00 | 0.00 | 64 | 1011.1 |
| 20260505122959 | 16 | 99 | 0.0 | 4.8 | 0.00 | 0.00 | 0.00 | 66 | 1011.1 |
| 20260505120005 | 14 | 24 | 0.0 | 6.4 | 0.00 | 0.00 | 0.00 | 73 | 1011.0 |
| 20260505113001 | 10 | 304 | 0.0 | 0.0 | 0.00 | 0.00 | 0.00 | 88 | 1010.9 |
| 20260505111500 | 8 | 304 | 0.0 | 0.0 | 0.00 | 0.00 | 0.00 | 88 | 1010.9 |
| 20260505101500 | 8 | 165 | 0.0 | 0.0 | 0.00 | 0.00 | 0.00 | 87 | 1010.5 |
| 20260505100002 | 8 | 165 | 0.0 | 0.0 | 0.00 | 0.00 | 0.00 | 87 | 1010.6 |
| 20260505094458 | 8 | 165 | 0.0 | 0.0 | 0.00 | 0.00 | 0.00 | 86 | 1010.3 |
| 20260505092959 | 8 | 165 | 0.0 | 0.0 | 0.00 | 0.00 | 0.00 | 86 | 1010.2 |
| 20260505091502 | 8 | 165 | 0.0 | 0.0 | 0.00 | 0.00 | 0.00 | 85 | 1010.3 |
| 20260505090001 | 8 | 165 | 0.0 | 0.0 | 0.00 | 0.00 | 0.00 | 84 | 1010.3 |
| 20260505084459 | 8 | 165 | 0.0 | 0.0 | 0.00 | 0.00 | 0.00 | 82 | 1010.2 |
| 20260505082959 | 8 | 165 | 0.0 | 1.6 | 0.00 | 0.00 | 0.00 | 82 | 1010.3 |
| 20260505081457 | 8 | 165 | 0.0 | 0.0 | 0.00 | 0.00 | 0.00 | 82 | 1010.5 |
| 20260505080000 | 8 | 165 | 0.0 | 0.0 | 0.00 | 0.00 | 0.00 | 81 | 1010.3 |
| 20260505071459 | 9 | 165 | 0.0 | 0.0 | 0.00 | 0.00 | 0.00 | 80 | 1010.1 |